Wind_Speed
2 2 1 1 1 2 4 7 9 9 8 8 7 6 7 10 10 11 12 12 10 11
2 1 2 1 1 2 3 5 7 8 9 8 7 6 4 3 3 4 5 4 7 8
2 2 1 1 2 3 4 5 6 6 6 7 7 7 5 2 1 2 2 3 3 3
0 1 2 3 4 4 5 5 5 5 6 7 7 7 6 5 4 2 3 4 5 5
2 2 2 3 3 4 4 5 5 5 5 7 8 8 8 7 6 6 7 7 6 6
1 1 2 3 4 4 4 5 5 6 7 8 9 7 6 5 5 6 7 6 6 6
1 2 3 4 5 5 7 7 8 9 9 10 9 8 7 6 7 8 9 9 9 10
3 3 3 3 4 6 8 10 10 11 13 14 15 13 10 11 13 13 16 16 15 15
3 2 3 4 5 7 9 10 11 12 15 17 16 15 15 16 17 16 16 15 12 10
3 4 5 5 6 8 9 10 12 14 15 17 14 13 14 13 14 15 14 12 10 10
5 6 6 7 8 9 10 11 12 13 12 13 12 11 12 12 13 13 13 12 10 9
6 9 10 10 9 9 11 12 11 10 10 11 12 10 9 9 9 9 9 9 9 9
10 12 11 10 10 10 10 10 10 10 10 10 11 7 6 5 4 5 5 5 5 4
12 12 11 11 10 11 13 11 10 6 5 5 5 5 4 5 6 6 5 5 5 6
Wind_Direction
8 8 9 356 284 303 323 321 320 320 319 317 320 295 276 261 256 255 244 252 272 280
32 57 77 80 58 2 346 331 330 325 320 317 313 324 315 272 238 233 252 275 279 289
68 67 60 12 353 351 350 348 348 352 352 346 341 333 322 323 284 276 300 318 311 306
7 335 326 327 336 337 339 352 1 9 8 4 0 360 359 5 10 2 8 12 10 356
310 321 326 340 348 349 357 8 19 23 25 27 26 23 22 27 38 44 44 35 12 10
352 0 23 22 21 25 30 34 41 43 45 41 32 15 11 31 46 51 42 37 26 0
75 50 38 37 44 56 61 60 58 58 58 53 51 53 55 60 70 75 72 65 57 46
98 65 59 57 52 54 66 71 70 68 64 63 57 54 68 76 80 80 78 73 71 67
126 116 100 89 89 91 88 89 90 83 75 69 61 65 72 82 84 84 78 72 69 71
143 125 112 110 107 103 102 106 98 91 83 76 69 68 71 79 83 81 77 73 66 65
140 120 122 119 115 117 118 106 99 92 91 90 77 69 63 69 76 82 82 73 66 57
157 148 144 140 137 128 123 115 110 105 98 87 81 66 63 65 72 74 70 63 53 30
169 161 155 152 148 142 143 133 128 116 103 90 85 64 59 45 44 48 47 38 26 30
172 158 158 168 163 149 141 143 140 134 120 106 92 80 54 20 20 30 22 14 10 5
Height
801 801 801 800 800 800 799 799 798 797 796 795 793 792 792 792 792 793 794 795 795 797
801 801 800 800 800 799 799 798 796 795 794 792 792 791 790 790 790 791 792 793 791 795
801 800 800 799 799 798 798 796 795 794 792 791 790 789 788 788 788 789 789 790 789 790
800 800 799 798 797 797 796 795 794 793 792 791 790 789 787 787 787 787 787 787 787 788
799 799 798 798 797 796 795 794 793 792 791 790 789 788 787 786 787 786 785 785 786 788
799 798 798 797 796 795 794 794 793 791 790 789 788 788 788 787 786 785 785 786 786 788
798 798 797 797 796 795 794 793 792 792 790 789 789 789 788 787 787 786 787 787 788 788
796 798 797 797 797 796 795 794 794 794 793 792 792 790 789 789 789 789 789 789 790 791
795 797 796 796 797 796 796 796 796 797 796 795 795 794 793 792 792 793 792 792 793 795
795 796 796 796 797 798 798 799 799 798 798 798 798 798 796 795 795 794 795 795 797 797
794 795 797 798 799 800 801 800 801 801 801 801 801 799 799 798 797 797 798 798 799 799
794 796 798 800 801 801 801 802 803 804 804 803 802 801 802 801 801 801 799 799 800 800
796 797 798 801 802 802 802 803 804 806 806 805 803 804 804 803 803 801 800 800 800 800
796 796 798 803 803 802 802 804 804 807 807 805 805 805 805 804 803 801 800 800 800 799